| time (UTC) | temp F | wind direction | speed MPH | gust MPH | rain 1hr in | rain 24hr in | rain mn in | humidity % | barometer mb |
| 20260906190030 | 68 | 177 | 1.0 | 7.0 | 0.00 | 0.00 | 0.00 | 63 | 1021.2 |
| 20260906185030 | 69 | 137 | 1.0 | 6.0 | 0.00 | 0.00 | 0.00 | 62 | 1021.2 |
| 20260906184030 | 69 | 91 | 0.0 | 9.0 | 0.00 | 0.00 | 0.00 | 62 | 1021.4 |
| 20260906183030 | 70 | 107 | 2.0 | 6.0 | 0.00 | 0.00 | 0.00 | 61 | 1021.4 |
| 20260906182030 | 70 | 101 | 2.0 | 7.0 | 0.00 | 0.00 | 0.00 | 60 | 1021.3 |
| 20260906181029 | 70 | 98 | 1.0 | 4.0 | 0.00 | 0.00 | 0.00 | 58 | 1021.5 |
| 20260906180029 | 71 | 121 | 1.0 | 4.0 | 0.00 | 0.00 | 0.00 | 57 | 1021.6 |
| 20260906175030 | 71 | 109 | 1.0 | 6.0 | 0.00 | 0.00 | 0.00 | 56 | 1021.8 |
| 20260906174030 | 71 | 340 | 1.0 | 4.0 | 0.00 | 0.00 | 0.00 | 55 | 1021.9 |
| 20260906173030 | 71 | 112 | 2.0 | 6.0 | 0.00 | 0.00 | 0.00 | 55 | 1022.0 |
| 20260906172029 | 71 | 113 | 1.0 | 4.0 | 0.00 | 0.00 | 0.00 | 55 | 1022.2 |
| 20260906171029 | 71 | 123 | 1.0 | 4.0 | 0.00 | 0.00 | 0.00 | 55 | 1022.1 |
| 20260906170029 | 71 | 123 | 2.0 | 7.0 | 0.00 | 0.00 | 0.00 | 54 | 1022.2 |
| 20260906165030 | 71 | 126 | 2.0 | 7.0 | 0.00 | 0.00 | 0.00 | 53 | 1022.2 |
| 20260906164030 | 72 | 130 | 2.0 | 6.0 | 0.00 | 0.00 | 0.00 | 53 | 1022.3 |
| 20260906163031 | 72 | 123 | 2.0 | 6.0 | 0.00 | 0.00 | 0.00 | 53 | 1022.4 |
| 20260906162030 | 72 | 131 | 2.0 | 6.0 | 0.00 | 0.00 | 0.00 | 52 | 1022.5 |
| 20260906161029 | 72 | 154 | 2.0 | 8.0 | 0.00 | 0.00 | 0.00 | 52 | 1022.7 |
| 20260906160030 | 72 | 148 | 2.0 | 10.0 | 0.00 | 0.00 | 0.00 | 51 | 1022.8 |
| 20260906155030 | 72 | 194 | 3.0 | 9.0 | 0.00 | 0.00 | 0.00 | 53 | 1022.7 |
| 20260906154030 | 72 | 149 | 1.0 | 8.0 | 0.00 | 0.00 | 0.00 | 55 | 1022.7 |
| 20260906153030 | 72 | 137 | 2.0 | 10.0 | 0.00 | 0.00 | 0.00 | 54 | 1022.7 |
| 20260906152030 | 72 | 128 | 1.0 | 9.0 | 0.00 | 0.00 | 0.00 | 54 | 1022.7 |
| 20260906151029 | 72 | 116 | 3.0 | 8.0 | 0.00 | 0.00 | 0.00 | 54 | 1022.8 |
| 20260906150029 | 72 | 108 | 2.0 | 11.0 | 0.00 | 0.00 | 0.00 | 53 | 1022.7 |
| 20260906145030 | 72 | 89 | 2.0 | 11.0 | 0.00 | 0.00 | 0.00 | 55 | 1022.8 |
| 20260906144030 | 71 | 151 | 2.0 | 10.0 | 0.00 | 0.00 | 0.00 | 53 | 1022.9 |
| 20260906143030 | 71 | 105 | 1.0 | 10.0 | 0.00 | 0.00 | 0.00 | 56 | 1023.2 |
| 20260906142030 | 70 | 122 | 2.0 | 7.0 | 0.00 | 0.00 | 0.00 | 57 | 1023.4 |
| 20260906141029 | 70 | 151 | 2.0 | 5.0 | 0.00 | 0.00 | 0.00 | 56 | 1023.5 |
| 20260906140029 | 70 | 119 | 2.0 | 8.0 | 0.00 | 0.00 | 0.00 | 55 | 1023.4 |
| 20260906135029 | 71 | 136 | 2.0 | 7.0 | 0.00 | 0.00 | 0.00 | 54 | 1023.6 |
| 20260906134030 | 71 | 109 | 3.0 | 9.0 | 0.00 | 0.00 | 0.00 | 53 | 1023.8 |
| 20260906133030 | 71 | 154 | 2.0 | 8.0 | 0.00 | 0.00 | 0.00 | 53 | 1024.1 |
| 20260906132030 | 71 | 135 | 3.0 | 10.0 | 0.00 | 0.00 | 0.00 | 52 | 1024.3 |
| 20260906131030 | 71 | 170 | 3.0 | 12.0 | 0.00 | 0.00 | 0.00 | 52 | 1024.3 |
| 20260906130030 | 71 | 166 | 2.0 | 10.0 | 0.00 | 0.00 | 0.00 | 53 | 1024.4 |
| 20260906125030 | 71 | 146 | 3.0 | 13.0 | 0.00 | 0.00 | 0.00 | 52 | 1024.3 |
| 20260906124029 | 71 | 146 | 3.0 | 10.0 | 0.00 | 0.00 | 0.00 | 54 | 1024.5 |
| 20260906123029 | 70 | 151 | 3.0 | 10.0 | 0.00 | 0.00 | 0.00 | 54 | 1024.5 |
| 20260906122030 | 70 | 173 | 5.0 | 12.0 | 0.00 | 0.00 | 0.00 | 54 | 1024.5 |
| 20260906121030 | 70 | 154 | 4.0 | 11.0 | 0.00 | 0.00 | 0.00 | 57 | 1024.6 |
| 20260906120030 | 69 | 121 | 2.0 | 10.0 | 0.00 | 0.00 | 0.00 | 58 | 1024.6 |
| 20260906115030 | 69 | 121 | 2.0 | 10.0 | 0.00 | 0.00 | 0.00 | 59 | 1024.8 |
| 20260906114030 | 68 | 154 | 2.0 | 10.0 | 0.00 | 0.00 | 0.00 | 60 | 1024.9 |
| 20260906113031 | 68 | 117 | 4.0 | 13.0 | 0.00 | 0.00 | 0.00 | 60 | 1025.0 |
| 20260906112030 | 68 | 163 | 3.0 | 12.0 | 0.00 | 0.00 | 0.00 | 60 | 1025.0 |
| 20260906111030 | 68 | 139 | 4.0 | 11.0 | 0.00 | 0.00 | 0.00 | 62 | 1025.1 |
| 20260906110030 | 67 | 159 | 3.0 | 12.0 | 0.00 | 0.00 | 0.00 | 64 | 1025.1 |
| 20260906105030 | 67 | 187 | 2.0 | 10.0 | 0.00 | 0.00 | 0.00 | 66 | 1025.3 |
| 20260906104029 | 66 | 141 | 2.0 | 9.0 | 0.00 | 0.00 | 0.00 | 67 | 1025.4 |
| 20260906103030 | 66 | 121 | 2.0 | 8.0 | 0.00 | 0.00 | 0.00 | 68 | 1025.5 |
| 20260906102030 | 65 | 155 | 2.0 | 8.0 | 0.00 | 0.00 | 0.00 | 69 | 1025.6 |
| 20260906101030 | 65 | 203 | 2.0 | 9.0 | 0.00 | 0.00 | 0.00 | 71 | 1025.7 |
| 20260906100030 | 64 | 148 | 2.0 | 8.0 | 0.00 | 0.00 | 0.00 | 73 | 1025.8 |
| 20260906095030 | 64 | 162 | 2.0 | 11.0 | 0.00 | 0.00 | 0.00 | 75 | 1025.9 |
| 20260906094030 | 63 | 183 | 3.0 | 9.0 | 0.00 | 0.00 | 0.00 | 77 | 1026.1 |
| 20260906093030 | 63 | 184 | 2.0 | 6.0 | 0.00 | 0.00 | 0.00 | 78 | 1026.2 |
| 20260906092030 | 62 | 184 | 5.0 | 10.0 | 0.00 | 0.00 | 0.00 | 78 | 1026.3 |
| 20260906091030 | 62 | 166 | 3.0 | 9.0 | 0.00 | 0.00 | 0.00 | 78 | 1026.2 |
| 20260906090029 | 61 | 195 | 4.0 | 10.0 | 0.00 | 0.00 | 0.00 | 79 | 1026.2 |
| 20260906085030 | 61 | 175 | 3.0 | 8.0 | 0.00 | 0.00 | 0.00 | 80 | 1026.3 |
| 20260906084030 | 61 | 181 | 4.0 | 11.0 | 0.00 | 0.00 | 0.00 | 80 | 1026.2 |
| 20260906083030 | 60 | 192 | 4.0 | 9.0 | 0.00 | 0.00 | 0.00 | 81 | 1026.2 |
| 20260906082029 | 60 | 198 | 4.0 | 10.0 | 0.00 | 0.00 | 0.00 | 81 | 1026.3 |
| 20260906081030 | 60 | 184 | 4.0 | 9.0 | 0.00 | 0.00 | 0.00 | 82 | 1026.3 |
| 20260906080030 | 59 | 183 | 4.0 | 11.0 | 0.00 | 0.00 | 0.00 | 83 | 1026.4 |
| 20260906075030 | 59 | 187 | 5.0 | 11.0 | 0.00 | 0.00 | 0.00 | 84 | 1026.4 |
| 20260906074030 | 58 | 186 | 2.0 | 8.0 | 0.00 | 0.00 | 0.00 | 85 | 1026.2 |
| 20260906073030 | 58 | 139 | 2.0 | 5.0 | 0.00 | 0.00 | 0.00 | 85 | 1026.1 |
| 20260906072030 | 57 | 117 | 2.0 | 6.0 | 0.00 | 0.00 | 0.00 | 86 | 1026.1 |
| 20260906071030 | 57 | 120 | 2.0 | 6.0 | 0.00 | 0.00 | 0.00 | 87 | 1026.1 |
| 20260906070030 | 56 | 137 | 2.0 | 6.0 | 0.00 | 0.00 | 0.00 | 87 | 1026.0 |
| 20260906065029 | 56 | 122 | 2.0 | 6.0 | 0.00 | 0.00 | 0.00 | 88 | 1026.0 |
| 20260906064030 | 55 | 111 | 3.0 | 6.0 | 0.00 | 0.00 | 0.00 | 88 | 1026.1 |
| 20260906063030 | 55 | 117 | 2.0 | 4.0 | 0.00 | 0.00 | 0.00 | 88 | 1026.1 |
| 20260906062030 | 54 | 102 | 2.0 | 4.0 | 0.00 | 0.00 | 0.00 | 88 | 1026.1 |
| 20260906061029 | 54 | 108 | 2.0 | 6.0 | 0.00 | 0.00 | 0.00 | 88 | 1026.1 |
| 20260906060030 | 54 | 106 | 3.0 | 6.0 | 0.00 | 0.00 | 0.00 | 88 | 1026.0 |
| 20260906055030 | 54 | 110 | 2.0 | 6.0 | 0.00 | 0.00 | 0.00 | 88 | 1026.0 |
| 20260906054030 | 54 | 120 | 2.0 | 6.0 | 0.00 | 0.00 | 0.00 | 87 | 1025.9 |
| 20260906053030 | 54 | 103 | 3.0 | 6.0 | 0.00 | 0.00 | 0.00 | 87 | 1025.9 |
| 20260906052030 | 54 | 98 | 2.0 | 6.0 | 0.00 | 0.00 | 0.00 | 87 | 1025.8 |
| 20260906051030 | 54 | 101 | 3.0 | 6.0 | 0.00 | 0.00 | 0.00 | 87 | 1025.7 |
| 20260906050030 | 54 | 132 | 2.0 | 4.0 | 0.00 | 0.00 | 0.00 | 87 | 1025.7 |
| 20260906045030 | 54 | 107 | 3.0 | 6.0 | 0.00 | 0.00 | 0.00 | 87 | 1025.7 |
| 20260906044029 | 54 | 94 | 3.0 | 7.0 | 0.00 | 0.00 | 0.00 | 86 | 1025.7 |
| 20260906043030 | 55 | 94 | 3.0 | 7.0 | 0.00 | 0.00 | 0.00 | 87 | 1025.7 |
| 20260906042030 | 55 | 106 | 2.0 | 4.0 | 0.00 | 0.00 | 0.00 | 87 | 1025.7 |
| 20260906041030 | 55 | 120 | 2.0 | 4.0 | 0.00 | 0.00 | 0.00 | 86 | 1025.8 |
| 20260906040030 | 55 | 141 | 1.0 | 4.0 | 0.00 | 0.00 | 0.00 | 86 | 1025.8 |
| 20260906035029 | 55 | 123 | 2.0 | 4.0 | 0.00 | 0.00 | 0.00 | 86 | 1025.7 |
| 20260906034030 | 56 | 127 | 1.0 | 3.0 | 0.00 | 0.00 | 0.00 | 86 | 1025.8 |
| 20260906033030 | 56 | 126 | 1.0 | 3.0 | 0.00 | 0.00 | 0.00 | 86 | 1025.9 |
| 20260906032029 | 56 | 160 | 1.0 | 3.0 | 0.00 | 0.00 | 0.00 | 85 | 1026.0 |
| 20260906031030 | 56 | 191 | 2.0 | 4.0 | 0.00 | 0.00 | 0.00 | 85 | 1026.1 |
| 20260906030030 | 56 | 182 | 2.0 | 7.0 | 0.00 | 0.00 | 0.00 | 85 | 1026.3 |
| 20260906025030 | 56 | 173 | 1.0 | 4.0 | 0.00 | 0.00 | 0.00 | 85 | 1026.3 |
| 20260906024030 | 57 | 177 | 3.0 | 7.0 | 0.00 | 0.00 | 0.00 | 84 | 1026.3 |
| 20260906023030 | 57 | 181 | 4.0 | 9.0 | 0.00 | 0.00 | 0.00 | 84 | 1026.4 |
| 20260906022030 | 57 | 187 | 4.0 | 7.0 | 0.00 | 0.00 | 0.00 | 84 | 1026.4 |
| 20260906021029 | 57 | 189 | 4.0 | 6.0 | 0.00 | 0.00 | 0.00 | 84 | 1026.5 |
| 20260906020030 | 57 | 190 | 5.0 | 8.0 | 0.00 | 0.00 | 0.00 | 83 | 1026.4 |
| 20260906015030 | 57 | 202 | 5.0 | 8.0 | 0.00 | 0.00 | 0.00 | 83 | 1026.3 |
| 20260906014029 | 57 | 194 | 5.0 | 9.0 | 0.00 | 0.00 | 0.00 | 82 | 1026.3 |
| 20260906013030 | 57 | 194 | 4.0 | 9.0 | 0.00 | 0.00 | 0.00 | 82 | 1026.2 |
| 20260906012030 | 57 | 168 | 1.0 | 5.0 | 0.00 | 0.00 | 0.00 | 81 | 1026.2 |
| 20260906011029 | 57 | 179 | 2.0 | 6.0 | 0.00 | 0.00 | 0.00 | 81 | 1026.1 |
| 20260906010030 | 57 | 115 | 2.0 | 4.0 | 0.00 | 0.00 | 0.00 | 81 | 1026.1 |
| 20260906005029 | 57 | 117 | 1.0 | 3.0 | 0.00 | 0.00 | 0.00 | 81 | 1026.0 |
| 20260906004030 | 58 | 146 | 1.0 | 3.0 | 0.00 | 0.00 | 0.00 | 81 | 1026.0 |
| 20260906003030 | 58 | 181 | 3.0 | 6.0 | 0.00 | 0.00 | 0.00 | 80 | 1026.0 |
| 20260906002030 | 58 | 187 | 4.0 | 7.0 | 0.00 | 0.00 | 0.00 | 80 | 1026.3 |
| 20260906001030 | 58 | 186 | 5.0 | 9.0 | 0.00 | 0.00 | 0.00 | 79 | 1026.3 |
| 20260906000030 | 58 | 183 | 3.0 | 7.0 | 0.00 | 0.00 | 0.00 | 78 | 1026.2 |
| 20260905235030 | 59 | 187 | 4.0 | 7.0 | 0.00 | 0.00 | 0.00 | 78 | 1026.3 |
| 20260905234030 | 60 | 175 | 2.0 | 6.0 | 0.00 | 0.00 | 0.00 | 76 | 1026.2 |
| 20260905233030 | 60 | 164 | 2.0 | 7.0 | 0.00 | 0.00 | 0.00 | 77 | 1026.1 |
| 20260905232030 | 60 | 203 | 4.0 | 7.0 | 0.00 | 0.00 | 0.00 | 76 | 1026.2 |
| 20260905231030 | 61 | 210 | 4.0 | 8.0 | 0.00 | 0.00 | 0.00 | 75 | 1026.2 |
| 20260905230029 | 62 | 257 | 8.0 | 10.0 | 0.00 | 0.00 | 0.00 | 75 | 1026.0 |
| 20260905225030 | 62 | 257 | 10.0 | 13.0 | 0.00 | 0.00 | 0.00 | 74 | 1026.0 |
| 20260905224030 | 62 | 273 | 11.0 | 13.0 | 0.00 | 0.00 | 0.00 | 73 | 1025.9 |
| 20260905223030 | 62 | 279 | 10.0 | 14.0 | 0.00 | 0.00 | 0.00 | 73 | 1026.0 |
| 20260905222030 | 62 | 274 | 11.0 | 13.0 | 0.00 | 0.00 | 0.00 | 73 | 1025.9 |
| 20260905221030 | 62 | 265 | 11.0 | 14.0 | 0.00 | 0.00 | 0.00 | 73 | 1025.8 |
| 20260905220030 | 62 | 283 | 10.0 | 14.0 | 0.00 | 0.00 | 0.00 | 73 | 1025.8 |
| 20260905215030 | 62 | 282 | 10.0 | 13.0 | 0.00 | 0.00 | 0.00 | 72 | 1025.6 |
| 20260905214030 | 62 | 283 | 10.0 | 13.0 | 0.00 | 0.00 | 0.00 | 72 | 1025.8 |
| 20260905213030 | 62 | 293 | 10.0 | 12.0 | 0.00 | 0.00 | 0.00 | 72 | 1025.5 |
| 20260905212030 | 62 | 287 | 10.0 | 12.0 | 0.00 | 0.00 | 0.00 | 72 | 1025.5 |
| 20260905211030 | 62 | 300 | 10.0 | 12.0 | 0.00 | 0.00 | 0.00 | 71 | 1025.5 |
| 20260905210030 | 62 | 299 | 10.0 | 13.0 | 0.00 | 0.00 | 0.00 | 71 | 1025.4 |
| 20260905205029 | 62 | 309 | 10.0 | 14.0 | 0.00 | 0.00 | 0.00 | 72 | 1025.2 |
| 20260905204030 | 62 | 297 | 10.0 | 14.0 | 0.00 | 0.00 | 0.00 | 71 | 1025.4 |
| 20260905203029 | 62 | 313 | 12.0 | 15.0 | 0.00 | 0.00 | 0.00 | 71 | 1025.1 |
| 20260905202030 | 62 | 315 | 11.0 | 14.0 | 0.00 | 0.00 | 0.00 | 71 | 1025.3 |
| 20260905201030 | 62 | 304 | 12.0 | 15.0 | 0.00 | 0.00 | 0.00 | 70 | 1025.2 |
| 20260905200029 | 62 | 306 | 13.0 | 17.0 | 0.00 | 0.00 | 0.00 | 72 | 1025.2 |
| 20260905195030 | 62 | 307 | 13.0 | 16.0 | 0.00 | 0.00 | 0.00 | 71 | 1025.3 |
| 20260905194030 | 62 | 300 | 15.0 | 18.0 | 0.00 | 0.00 | 0.00 | 71 | 1025.2 |
| 20260905193030 | 63 | 294 | 15.0 | 19.0 | 0.00 | 0.00 | 0.00 | 71 | 1025.1 |
| 20260905192030 | 63 | 298 | 16.0 | 20.0 | 0.00 | 0.00 | 0.00 | 72 | 1024.9 |
| 20260905191030 | 63 | 296 | 16.0 | 21.0 | 0.00 | 0.00 | 0.00 | 72 | 1024.8 |